Regional Weather Roundup
Issued by NWS

Home | Current Version | Previous Version | Graphics & Text | Print | Product List | Glossary On
Versions: 1 2 3 4 5 6 7 8 9 10 11 12 13 14 15 16 17 18 19 20 21 22 23 24 25 26 27 28 29 30 31 32 33 34 35 36 37 38 39 40 41 42 43 44 45 46 47 48 49 50
000
ASUS43 KTOP 151408
RWRKS

WEATHER ROUNDUP FOR KANSAS
NATIONAL WEATHER SERVICE GOODLAND KS
800 AM CST SUN JAN 15 2017

NOTE:  "FAIR" INDICATES FEW OR NO CLOUDS BELOW 12,000 FEET WITH NO
SIGNIFICANT WEATHER AND/OR OBSTRUCTIONS TO VISIBILITY.

KSZ001>006-013>018-027>032-041>047-151500-
NORTHWEST KANSAS

CITY           SKY/WX    TMP DP  RH WIND       PRES   REMARKS
GOODLAND       CLOUDY    29  28  96 SE6       30.14F FOG
HAYS           FLURRIES  28  25  88 E3        30.25S
HILL CITY      CLOUDY    29  29 100 SE5       30.24S FOG
RUSSELL        MIX PCPN  28  24  85 E8        30.23S
$$

KSZ061>065-074>080-084>089-151500-
SOUTHWEST KANSAS

CITY           SKY/WX    TMP DP  RH WIND       PRES   REMARKS
DODGE CITY     FRZ RAIN  30  30 100 E6        30.19F FOG
ELKHART          N/A     30  24  78 E5          N/A
GARDEN CITY    CLOUDY    31  29  92 E8        30.15F
GREAT BEND     FLURRIES  29  26  89 CALM      30.25R
LIBERAL        CLOUDY    32  27  80 CALM      30.16F
PRATT          CLOUDY    27  26  94 E5        30.22R
$$

KSZ066>073-081>083-090>101-151500-
SOUTHEAST KANSAS

CITY           SKY/WX    TMP DP  RH WIND       PRES   REMARKS
CHANUTE        FRZ RAIN  33  31  92 NE7       30.29F
HUTCHINSON     FRZ RAIN  31  28  89 E13       30.24F WCI  21
MEDICINE LODGE   N/A     31  29  92 E10       30.21F WCI  22
NEWTON         MIX PCPN  30  29  96 NE9       30.26F
PARSONS        CLOUDY    33  32  96 VRB5      30.29F FOG
WICHITA INTL   FRZ RAIN  32  30  92 NE9       30.25F FOG
WICHITA JABRA  MIX PCPN  31  30  96 NE7       30.26F
WICHITA MCCONL FRZ RAIN  32  31  96 CALM      30.24F FOG
WINFIELD       CLOUDY    33  33 100 NE7       30.26F
$$

KSZ007>012-019>026-033>040-048>060-102>105-151500-
NORTHEAST KANSAS

CITY           SKY/WX    TMP DP  RH WIND       PRES   REMARKS
CONCORDIA      MIX PCPN  28  27  96 E5        30.29F FOG
EMPORIA        FRZ RAIN  30  30 100 NE7       30.29F FOG
LAWRENCE       FRZ RAIN  31  30  96 E7        30.34F FOG
MANHATTAN      CLOUDY    30  28  92 NE3       30.33F
MARYSVILLE     MIX PCPN  30  28  93 SE6       30.33F
OLATHE IND     FRZ RAIN  30  29  96 E7        30.33F FOG
OLATHE EXE     MIX PCPN  30  30 100 E8        30.32F FOG
SALINA         FRZ RAIN  30  27  88 NE8       30.29F
TOPEKA BILLARD FRZ RAIN  31  28  89 E5        30.34F FOG
TOPEKA FORBES  CLOUDY    31  29  92 NE3       30.31F FOG
$$




USA.gov is the U.S. government's official web portal to all federal, state and local government web resources and services.